#timestamp,LO_Frequency,Hit,StdDev 
1542013215.8,286046994.0,N
1542013235.6,286046994.3,N
1542013255.5,286046992.3,N
1542013275.3,286046992.3,N
1542013295.1,286046990.2,N
1542013315.9,286046990.2,N
1542013335.7,286046990.4,N
1542013355.5,286046993.2,N
1542013375.4,286046990.1,N
1542013395.2,286046988.5,N
1542013415.1,286046989.8,N
1542013416.0,286046989.8,N
1542013435.8,286046989.8,N
1542013455.6,286046991.6,N
1542013475.5,286046988.9,N
1542013495.3,286046989.8,N
1542013515.1,286046986.9,N
1542013535.9,286046985.8,N
1542013555.7,286046988.3,Y
1542013575.6,286046993.6,P
1542013595.4,286046994.1,P
1542013615.2,286046992.0,P
1542013635.1,286046994.1,Y
1542013636.0,286046994.1,P
1542013655.8,286046999.8,N
1542013675.7,286046998.4,N
1542013695.5,286046999.6,N
1542013715.3,286046999.2,N
1542013735.2,286046998.9,N
1542013755.0,286046998.1,N
1542013755.9,286046998.1,N
1542013775.7,286046996.6,N
1542013795.6,286046996.6,N
1542013815.4,286046995.4,N
1542013835.3,286046998.0,N
1542013855.1,286046995.4,N
1542013856.0,286046995.4,N
1542013875.8,286046998.0,N
1542013895.7,286046995.0,N
1542013915.5,286046997.8,N
1542013935.3,286046995.8,N
1542013955.2,286046993.8,Y
1542013975.0,286046995.2,P
1542013975.9,286046995.2,P
1542013995.8,286046997.6,N
1542014015.6,286046997.8,N
1542014035.4,286046995.1,Y
1542014055.3,286046998.3,P
1542014075.1,286046999.6,N
1542014095.9,286046997.4,N
1542014115.7,286046996.7,N
1542014135.5,286046999.6,N
1542014155.4,286046999.0,N
1542014175.2,286046997.7,N
1542014195.0,286046997.4,N
1542014195.9,286046997.4,N
1542014215.8,286046995.1,Y
1542014235.6,286046997.9,P
1542014255.4,286046995.7,P
1542014275.3,286046995.2,P
1542014295.1,286046997.8,N
1542014315.9,286046995.7,Y
1542014335.7,286046998.8,P
1542014355.5,286046996.6,P
1542014375.4,286046999.0,N
1542014395.2,286046995.5,Y
1542014415.1,286046998.7,P
1542014416.0,286046998.7,P
1542014435.8,286046997.0,P
1542014455.6,286046997.3,Y
1542014475.5,286047000.2,P
1542014495.3,286046999.9,N
1542014515.2,286047000.5,N
1542014535.9,286046998.8,N
1542014555.7,286046999.0,N
1542014575.6,286046997.0,Y
1542014595.4,286046997.8,P
1542014615.2,286046994.9,P
1542014635.1,286046996.1,N
1542014636.0,286046996.1,N
1542014655.8,286046995.8,N
1542014675.7,286046995.0,Y
1542014695.5,286047000.0,P
1542014715.3,286047000.8,N
1542014765.2,286047000.9,E
1542014775.1,286046998.4,N
1542014795.9,286046997.8,P
1542014815.7,286046999.6,N
1542014835.5,286046995.0,Y
1542014855.4,286046997.4,P
1542014875.2,286046997.1,P
1542014895.1,286046998.3,N
1542014896.0,286046998.3,N
1542014915.8,286046999.6,N
1542014935.6,286046997.2,Y
1542014955.5,286046996.9,P
1542014975.3,286046999.6,N
1542014995.1,286046995.3,P
1542015015.9,286046997.3,N
1542015035.7,286046998.0,N
1542015055.6,286046996.4,N
1542015075.4,286046996.1,Y
1542015095.2,286046999.6,P
1542015115.1,286046996.9,N
1542015116.0,286046996.9,N
1542015135.8,286046997.7,N
1542015155.6,286046995.1,Y
1542015175.5,286046998.7,P
1542015195.3,286046999.1,N
1542015215.2,286046998.4,N
1542015235.9,286046999.1,N
1542015255.7,286046996.5,Y
1542015275.6,286046996.8,P
1542015295.4,286046996.7,P
1542015315.2,286046997.6,N
1542015335.1,286046997.4,Y
1542015336.0,286046997.4,P
1542015355.8,286047000.5,P
1542015375.7,286047000.4,N
1542015395.5,286046999.1,N
1542015415.3,286046997.7,N
1542015435.2,286046995.8,Y
1542015455.0,286046997.8,P
1542015455.9,286046997.8,P
1542015475.8,286046995.3,P
1542015495.6,286046995.2,Y
1542015515.4,286046996.9,P
1542015535.3,286046997.3,P
1542015555.1,286046998.9,P
1542015575.9,286046997.0,Y
1542015595.7,286047000.9,P
1542015615.5,286047001.1,N
1542015635.4,286047000.3,N
1542015655.2,286046999.2,N
1542015675.0,286046999.5,N
1542015675.9,286046999.5,N
1542015695.8,286046999.2,N
1542015715.6,286046995.5,Y
1542015735.5,286046997.5,P
1542015755.3,286046996.8,N
1542015775.1,286046996.8,N
1542015795.9,286046995.1,Y
1542015815.7,286046996.5,P
1542015835.5,286046999.4,N
1542015855.4,286046998.1,N
1542015875.2,286046996.6,Y
1542015895.1,286046998.2,P
1542015896.0,286046998.2,P
1542015915.8,286046999.9,N
1542015935.6,286047000.8,N
1542015955.5,286046998.4,N
1542015975.3,286047000.9,N
1542015995.1,286046999.6,N
1542016015.9,286046999.3,N
1542016035.7,286046999.3,N
1542016055.6,286046996.7,Y
1542016075.4,286046999.1,P
1542016095.2,286046996.7,P
1542016115.1,286046995.1,P
1542016116.0,286046995.1,N
1542016135.8,286046995.3,N
1542016155.6,286046997.8,N
1542016175.5,286046999.2,N
1542016195.3,286046998.9,N
1542016215.2,286046999.4,N
1542016235.9,286046996.7,N
1542016255.7,286046993.3,Y
1542016275.6,286046998.3,P
1542016295.4,286046998.4,P
1542016315.2,286046999.1,N
1542016335.1,286046996.8,Y
1542016336.0,286046996.8,P
1542016355.8,286046999.6,N
1542016375.7,286046997.7,N
1542016395.5,286046996.2,Y
1542016415.3,286046997.3,P
1542016435.2,286046997.7,P
1542016455.0,286046997.6,P
1542016455.9,286046997.6,Y
1542016475.8,286046999.5,P
1542016495.6,286047000.9,N
1542016515.4,286046996.5,N
1542016535.3,286046999.2,N
1542016555.1,286046996.6,N
1542016575.8,286046996.8,N
1542016595.7,286046996.7,N
1542016615.5,286046997.2,N
1542016635.4,286046995.0,Y
1542016655.2,286046998.3,P
1542016675.0,286046996.9,P
1542016675.9,286046996.9,P
1542016695.8,286046998.9,N
1542016715.6,286046995.0,Y
1542016735.5,286046999.2,P
1542016755.3,286046998.6,N
1542016775.1,286046998.5,N
1542016795.9,286047000.9,N
